• In Belarus
  • List of Countries
  • For 7 days
  • Water Temperature
  • Satellite Maps
  • Weather Map
  • Weather Widgets
  • user-avatar
    Login

    Hourly Weather Waganka

    Today, 21 February, Thursday

    Time Temperature Precipitation Wind Pressure Humidity
    00:00 +1°C° 0 mm 4 mps 756 mmHg 81%
    01:00 +2°C° 0 mm 3 mps 756 mmHg 82%
    02:00 +2°C° 0 mm 3 mps 756 mmHg 85%
    03:00 +1°C° 0 mm 3 mps 756 mmHg 89%
    04:00 +1°C° 0 mm 3 mps 756 mmHg 92%
    05:00 +1°C° 0 mm 3 mps 756 mmHg 93%
    06:00 +1°C° 0 mm 3 mps 756 mmHg 94%
    07:00 +2°C° 0 mm 2 mps 756 mmHg 95%
    08:00 +2°C° 0.2 mm 2 mps 756 mmHg 95%
    09:00 +4°C° 0.2 mm 1 mps 756 mmHg 94%
    10:00 +4°C° 0.2 mm 1 mps 756 mmHg 94%
    11:00 +4°C° 0.4 mm 1 mps 756 mmHg 94%
    12:00 +5°C° 0.4 mm 1 mps 755 mmHg 94%
    13:00 +4°C° 0 mm 1 mps 755 mmHg 94%
    14:00 +4°C° 1 mm 1 mps 755 mmHg 94%
    15:00 +4°C° 1 mm 1 mps 754 mmHg 94%
    16:00 +4°C° 1 mm 1 mps 754 mmHg 94%
    17:00 +3°C° 1 mm 2 mps 754 mmHg 94%
    18:00 +3°C° 1 mm 2 mps 754 mmHg 94%
    19:00 +1°C° 1 mm 3 mps 754 mmHg 94%
    20:00 -1°C° 0.7 mm 4 mps 755 mmHg 93%
    21:00 -1°C° 0.7 mm 5 mps 755 mmHg 92%
    22:00 -3°C° 0.7 mm 6 mps 755 mmHg 91%
    23:00 -4°C° 0.3 mm 6 mps 756 mmHg 88%

    Tomorrow, 22 February, Friday

    Time Temperature Precipitation Wind Pressure Humidity
    00:00 -4°C° 0.3 mm 5 mps 756 mmHg 84%
    01:00 -4°C° 0.3 mm 5 mps 757 mmHg 81%
    02:00 -5°C° 0 mm 5 mps 758 mmHg 77%
    03:00 -5°C° 0 mm 5 mps 759 mmHg 73%
    04:00 -6°C° 0 mm 5 mps 760 mmHg 69%
    05:00 -6°C° 0 mm 5 mps 761 mmHg 69%
    06:00 -7°C° 0 mm 5 mps 762 mmHg 69%
    07:00 -8°C° 0 mm 5 mps 763 mmHg 69%
    08:00 -8°C° 0 mm 6 mps 764 mmHg 64%
    09:00 -8°C° 0 mm 6 mps 765 mmHg 59%
    10:00 -6°C° 0 mm 6 mps 766 mmHg 55%
    11:00 -6°C° 0 mm 6 mps 767 mmHg 52%
    12:00 -5°C° 0 mm 6 mps 767 mmHg 49%
    13:00 -5°C° 0 mm 5 mps 768 mmHg 47%
    14:00 -5°C° 0 mm 5 mps 768 mmHg 47%
    15:00 -5°C° 0 mm 5 mps 768 mmHg 48%
    16:00 -5°C° 0 mm 5 mps 769 mmHg 49%
    17:00 -5°C° 0 mm 4 mps 769 mmHg 51%
    18:00 -5°C° 0 mm 4 mps 770 mmHg 53%
    19:00 -7°C° 0 mm 4 mps 770 mmHg 55%
    20:00 -7°C° 0 mm 4 mps 771 mmHg 55%
    21:00 -7°C° 0 mm 4 mps 771 mmHg 54%
    22:00 -7°C° 0 mm 4 mps 771 mmHg 54%
    23:00 -6°C° 0 mm 3 mps 772 mmHg 56%

    Day after tomorrow, 23 February, Saturday

    Time Temperature Precipitation Wind Pressure Humidity
    00:00 -6°C° 0 mm 3 mps 772 mmHg 57%
    01:00 -6°C° 0 mm 3 mps 772 mmHg 58%
    02:00 -7°C° 0 mm 3 mps 772 mmHg 60%
    03:00 -6°C° 0 mm 2 mps 772 mmHg 62%
    04:00 -6°C° 0 mm 2 mps 772 mmHg 64%
    05:00 -6°C° 0 mm 2 mps 772 mmHg 64%
    06:00 -6°C° 0 mm 2 mps 772 mmHg 65%
    07:00 -6°C° 0 mm 2 mps 773 mmHg 66%
    08:00 -5°C° 0 mm 2 mps 773 mmHg 60%
    09:00 -4°C° 0 mm 2 mps 773 mmHg 55%
    10:00 -3°C° 0 mm 2 mps 773 mmHg 49%
    11:00 -3°C° 0 mm 2 mps 773 mmHg 46%
    12:00 0°C° 0 mm 1 mps 773 mmHg 43%
    13:00 0°C° 0 mm 1 mps 772 mmHg 40%
    14:00 0°C° 0 mm 1 mps 772 mmHg 42%
    15:00 0°C° 0 mm 1 mps 772 mmHg 43%
    16:00 0°C° 0 mm 1 mps 771 mmHg 45%
    17:00 0°C° 0 mm 1 mps 771 mmHg 47%
    18:00 -1°C° 0 mm 1 mps 771 mmHg 49%
    19:00 -1°C° 0 mm 1 mps 771 mmHg 50%
    20:00 -3°C° 0 mm 2 mps 771 mmHg 50%
    21:00 -2°C° 0 mm 2 mps 771 mmHg 49%
    22:00 -2°C° 0 mm 2 mps 771 mmHg 49%
    23:00 -2°C° 0 mm 3 mps 770 mmHg 49%

    24 February, Sunday

    Time Temperature Precipitation Wind Pressure Humidity
    00:00 -2°C° 0 mm 3 mps 770 mmHg 49%
    01:00 -2°C° 0 mm 3 mps 770 mmHg 49%
    02:00 -2°C° 0 mm 3 mps 769 mmHg 49%
    03:00 -2°C° 0 mm 3 mps 769 mmHg 48%
    04:00 -2°C° 0 mm 3 mps 769 mmHg 48%
    05:00 -2°C° 0 mm 3 mps 768 mmHg 48%
    06:00 -2°C° 0 mm 3 mps 768 mmHg 49%
    07:00 -2°C° 0 mm 3 mps 768 mmHg 49%
    08:00 -1°C° 0 mm 3 mps 768 mmHg 48%
    09:00 -2°C° 0 mm 4 mps 768 mmHg 46%
    10:00 -1°C° 0 mm 4 mps 768 mmHg 45%
    11:00 -1°C° 0 mm 4 mps 767 mmHg 45%
    12:00 +1°C° 0 mm 3 mps 767 mmHg 45%
    13:00 +2°C° 0 mm 3 mps 767 mmHg 46%
    14:00 +2°C° 0 mm 2 mps 767 mmHg 50%
    15:00 +2°C° 0 mm 2 mps 767 mmHg 54%
    16:00 +2°C° 0 mm 2 mps 767 mmHg 57%
    17:00 +2°C° 0 mm 2 mps 767 mmHg 61%
    18:00 +1°C° 0 mm 2 mps 767 mmHg 65%
    19:00 -1°C° 0 mm 2 mps 767 mmHg 69%
    20:00 -1°C° 0 mm 2 mps 767 mmHg 71%
    21:00 -1°C° 0 mm 2 mps 767 mmHg 73%
    22:00 -1°C° 0 mm 2 mps 767 mmHg 76%
    23:00 -1°C° 0 mm 3 mps 767 mmHg 79%

    25 February, Monday

    Time Temperature Precipitation Wind Pressure Humidity
    00:00 -1°C° 0 mm 3 mps 766 mmHg 82%
    01:00 -1°C° 0 mm 3 mps 766 mmHg 86%
    02:00 -1°C° 0 mm 3 mps 766 mmHg 88%
    03:00 -1°C° 0 mm 3 mps 766 mmHg 90%
    04:00 -1°C° 0 mm 3 mps 766 mmHg 93%
    05:00 -1°C° 0 mm 3 mps 766 mmHg 93%
    06:00 -1°C° 0 mm 3 mps 767 mmHg 94%
    07:00 -1°C° 0 mm 3 mps 767 mmHg 95%
    08:00 0°C° 0 mm 3 mps 767 mmHg 95%
    09:00 +2°C° 0 mm 2 mps 767 mmHg 95%
    10:00 +2°C° 0 mm 2 mps 767 mmHg 94%
    11:00 +3°C° 0 mm 2 mps 767 mmHg 92%
    12:00 +2°C° 0 mm 3 mps 767 mmHg 90%
    13:00 +3°C° 0 mm 3 mps 767 mmHg 88%
    14:00 +3°C° 0 mm 3 mps 766 mmHg 89%
    15:00 +4°C° 0 mm 2 mps 766 mmHg 91%
    16:00 +3°C° 0 mm 2 mps 766 mmHg 92%
    17:00 +2°C° 0 mm 2 mps 766 mmHg 94%
    18:00 +1°C° 0 mm 3 mps 766 mmHg 95%
    19:00 0°C° 0 mm 3 mps 765 mmHg 96%
    20:00 0°C° 0 mm 3 mps 765 mmHg 96%
    21:00 0°C° 0 mm 3 mps 765 mmHg 96%
    22:00 0°C° 0 mm 3 mps 764 mmHg 96%
    23:00 0°C° 0 mm 3 mps 764 mmHg 95%

    26 February, Tuesday

    Time Temperature Precipitation Wind Pressure Humidity
    00:00 0°C° 0 mm 3 mps 763 mmHg 94%
    01:00 0°C° 0 mm 4 mps 763 mmHg 93%
    02:00 -1°C° 0 mm 4 mps 762 mmHg 92%
    03:00 0°C° 0 mm 3 mps 762 mmHg 90%
    04:00 0°C° 0 mm 3 mps 761 mmHg 89%
    05:00 -1°C° 0 mm 3 mps 761 mmHg 89%
    06:00 -1°C° 0 mm 3 mps 760 mmHg 89%
    07:00 -1°C° 0 mm 3 mps 760 mmHg 90%
    08:00 0°C° 0 mm 3 mps 760 mmHg 86%
    09:00 +2°C° 0 mm 3 mps 760 mmHg 81%
    10:00 +3°C° 0 mm 3 mps 760 mmHg 77%
    11:00 +4°C° 0 mm 4 mps 759 mmHg 76%
    12:00 +4°C° 0 mm 4 mps 759 mmHg 74%
    13:00 +5°C° 0 mm 4 mps 758 mmHg 73%
    14:00 +5°C° 0 mm 4 mps 758 mmHg 76%
    15:00 +5°C° 0 mm 4 mps 758 mmHg 80%
    16:00 +4°C° 0 mm 4 mps 758 mmHg 83%
    17:00 +4°C° 0 mm 4 mps 758 mmHg 85%
    18:00 +3°C° 0 mm 4 mps 758 mmHg 88%
    19:00 +1°C° 0 mm 5 mps 758 mmHg 90%
    20:00 +1°C° 0 mm 5 mps 758 mmHg 89%
    21:00 +1°C° 0 mm 5 mps 758 mmHg 89%
    22:00 -1°C° 0 mm 6 mps 758 mmHg 88%
    23:00 0°C° 0 mm 5 mps 759 mmHg 86%
    Show more